| time (UTC) | temp F | wind direction | speed MPH | gust MPH | rain 1hr in | rain 24hr in | rain mn in | humidity % | barometer mb |
| 20260905214006 | 98 | 112 | 7.0 | 9.0 | 0.00 | 0.00 | 0.00 | 35 | 1005.6 |
| 20260905213503 | 98 | 45 | 2.0 | 4.0 | 0.00 | 0.00 | 0.00 | 35 | 1006.0 |
| 20260905212504 | 98 | 135 | 7.0 | 11.0 | 0.00 | 0.00 | 0.00 | 36 | 1006.0 |
| 20260905212008 | 98 | 112 | 9.0 | 11.0 | 0.00 | 0.00 | 0.00 | 35 | 1006.0 |
| 20260905210004 | 97 | 112 | 7.0 | 9.0 | 0.00 | 0.00 | 0.00 | 36 | 1006.3 |
| 20260905204006 | 98 | 157 | 10.0 | 10.0 | 0.00 | 0.00 | 0.00 | 36 | 1007.0 |
| 20260905203503 | 96 | 157 | 4.0 | 7.0 | 0.00 | 0.00 | 0.00 | 39 | 1007.0 |
| 20260905203007 | 95 | 112 | 8.0 | 12.0 | 0.00 | 0.00 | 0.00 | 39 | 1007.0 |
| 20260905202505 | 96 | 112 | 11.0 | 15.0 | 0.00 | 0.00 | 0.00 | 39 | 1007.0 |
| 20260905201505 | 97 | 180 | 6.0 | 12.0 | 0.00 | 0.00 | 0.00 | 39 | 1007.3 |
| 20260905201008 | 96 | 112 | 7.0 | 10.0 | 0.00 | 0.00 | 0.00 | 39 | 1007.3 |
| 20260905200505 | 95 | 112 | 9.0 | 12.0 | 0.00 | 0.00 | 0.00 | 39 | 1007.3 |
| 20260905195505 | 96 | 90 | 7.0 | 11.0 | 0.00 | 0.00 | 0.00 | 39 | 1007.7 |
| 20260905195008 | 96 | 112 | 4.0 | 5.0 | 0.00 | 0.00 | 0.00 | 39 | 1007.7 |
| 20260905194008 | 97 | 180 | 6.0 | 8.0 | 0.00 | 0.00 | 0.00 | 38 | 1007.7 |
| 20260905191007 | 95 | 180 | 8.0 | 10.0 | 0.00 | 0.00 | 0.00 | 38 | 1008.7 |
| 20260905190505 | 96 | 135 | 8.0 | 11.0 | 0.00 | 0.00 | 0.00 | 39 | 1008.7 |
| 20260905185506 | 96 | 135 | 7.0 | 10.0 | 0.00 | 0.00 | 0.00 | 39 | 1009.0 |
| 20260905184507 | 94 | 135 | 9.0 | 11.0 | 0.00 | 0.00 | 0.00 | 40 | 1009.4 |
| 20260905182507 | 96 | 157 | 2.0 | 4.0 | 0.00 | 0.00 | 0.00 | 41 | 1009.4 |
| 20260905175508 | 94 | 225 | 5.0 | 7.0 | 0.00 | 0.00 | 0.00 | 43 | 1010.0 |
| 20260905175005 | 94 | 202 | 10.0 | 12.0 | 0.00 | 0.00 | 0.00 | 42 | 1010.0 |
| 20260905174508 | 94 | 157 | 4.0 | 9.0 | 0.00 | 0.00 | 0.00 | 42 | 1009.7 |
| 20260905174005 | 94 | 225 | 8.0 | 11.0 | 0.00 | 0.00 | 0.00 | 41 | 1009.7 |
| 20260905173508 | 94 | 112 | 5.0 | 6.0 | 0.00 | 0.00 | 0.00 | 41 | 1010.0 |
| 20260905171504 | 94 | 180 | 12.0 | 17.0 | 0.00 | 0.00 | 0.00 | 41 | 1010.0 |
| 20260905165504 | 95 | 202 | 5.0 | 8.0 | 0.00 | 0.00 | 0.00 | 43 | 1010.4 |
| 20260905164530 | 93 | 157 | 6.0 | 8.0 | 0.00 | 0.00 | 0.00 | 44 | 1010.4 |
| 20260905164008 | 93 | 157 | 6.0 | 7.0 | 0.00 | 0.00 | 0.00 | 45 | 1010.4 |
| 20260905162004 | 93 | 180 | 9.0 | 10.0 | 0.00 | 0.00 | 0.00 | 46 | 1010.4 |
| 20260905161507 | 93 | 202 | 1.0 | 3.0 | 0.00 | 0.00 | 0.00 | 46 | 1010.4 |
| 20260905153503 | 88 | 270 | 7.0 | 9.0 | 0.00 | 0.00 | 0.00 | 61 | 1011.0 |
| 20260905150008 | 87 | 225 | 8.0 | 10.0 | 0.00 | 0.00 | 0.00 | 65 | 1011.7 |
| 20260905145505 | 86 | 202 | 9.0 | 11.0 | 0.00 | 0.00 | 0.00 | 67 | 1011.7 |
| 20260905145008 | 86 | 225 | 8.0 | 10.0 | 0.00 | 0.00 | 0.00 | 65 | 1011.7 |
| 20260905144506 | 86 | 202 | 7.0 | 9.0 | 0.00 | 0.00 | 0.00 | 67 | 1011.7 |
| 20260905143506 | 85 | 180 | 6.0 | 7.0 | 0.00 | 0.00 | 0.00 | 69 | 1011.7 |
| 20260905143004 | 85 | 202 | 9.0 | 10.0 | 0.00 | 0.00 | 0.00 | 69 | 1011.7 |
| 20260905142005 | 85 | 202 | 7.0 | 9.0 | 0.00 | 0.00 | 0.00 | 71 | 1012.1 |
| 20260905141508 | 84 | 202 | 4.0 | 5.0 | 0.00 | 0.00 | 0.00 | 73 | 1012.1 |
| 20260905141005 | 84 | 202 | 8.0 | 10.0 | 0.00 | 0.00 | 0.00 | 73 | 1012.1 |
| 20260905140509 | 83 | 202 | 7.0 | 8.0 | 0.00 | 0.00 | 0.00 | 75 | 1012.1 |
| 20260905140006 | 83 | 202 | 7.0 | 9.0 | 0.00 | 0.00 | 0.00 | 75 | 1012.1 |
| 20260905134007 | 82 | 225 | 2.0 | 3.0 | 0.00 | 0.00 | 0.00 | 81 | 1012.4 |
| 20260905133007 | 80 | 292 | 4.0 | 5.0 | 0.00 | 0.00 | 0.00 | 86 | 1012.4 |
| 20260905132505 | 79 | 315 | 3.0 | 3.0 | 0.00 | 0.00 | 0.00 | 88 | 1012.7 |
| 20260905132008 | 79 | 315 | 2.0 | 3.0 | 0.00 | 0.00 | 0.00 | 89 | 1012.7 |
| 20260905131505 | 78 | 315 | 3.0 | 4.0 | 0.00 | 0.00 | 0.00 | 91 | 1013.4 |
| 20260905131008 | 78 | 315 | 3.0 | 3.0 | 0.00 | 0.00 | 0.00 | 92 | 1013.4 |
| 20260905130506 | 77 | 315 | 3.0 | 3.0 | 0.00 | 0.00 | 0.00 | 93 | 1013.8 |
| 20260905125506 | 76 | 315 | 0.0 | 0.0 | 0.00 | 0.00 | 0.00 | 94 | 1013.8 |
| 20260905124003 | 76 | 315 | 2.0 | 3.0 | 0.00 | 0.00 | 0.00 | 95 | 1014.4 |
| 20260905121508 | 75 | 180 | 0.0 | 0.0 | 0.00 | 0.00 | 0.00 | 91 | 1014.1 |
| 20260905121005 | 76 | 180 | 2.0 | 3.0 | 0.00 | 0.00 | 0.00 | 92 | 1014.1 |
| 20260905120507 | 75 | 157 | 2.0 | 3.0 | 0.00 | 0.00 | 0.00 | 91 | 1014.1 |
| 20260905120005 | 76 | 157 | 3.0 | 4.0 | 0.00 | 0.00 | 0.00 | 92 | 1014.1 |
| 20260905115508 | 75 | 157 | 3.0 | 4.0 | 0.00 | 0.00 | 0.00 | 90 | 1014.1 |
| 20260905115005 | 76 | 157 | 4.0 | 4.0 | 0.00 | 0.00 | 0.00 | 90 | 1014.1 |
| 20260905114006 | 76 | 157 | 3.0 | 4.0 | 0.00 | 0.00 | 0.00 | 90 | 1013.8 |
| 20260905113007 | 76 | 157 | 0.0 | 0.0 | 0.00 | 0.00 | 0.00 | 90 | 1013.8 |
| 20260905110505 | 77 | 157 | 2.0 | 3.0 | 0.00 | 0.00 | 0.00 | 87 | 1013.4 |
| 20260905105506 | 77 | 180 | 4.0 | 6.0 | 0.00 | 0.00 | 0.00 | 87 | 1013.4 |
| 20260905104004 | 78 | 135 | 7.0 | 9.0 | 0.00 | 0.00 | 0.00 | 86 | 1013.4 |
| 20260905103509 | 78 | 157 | 4.0 | 5.0 | 0.00 | 0.00 | 0.00 | 85 | 1013.4 |
| 20260905100503 | 78 | 202 | 3.0 | 4.0 | 0.00 | 0.00 | 0.00 | 84 | 1013.4 |
| 20260905094008 | 78 | 202 | 3.0 | 4.0 | 0.00 | 0.00 | 0.00 | 83 | 1013.4 |
| 20260905093004 | 78 | 202 | 4.0 | 4.0 | 0.00 | 0.00 | 0.00 | 82 | 1013.4 |
| 20260905091507 | 78 | 202 | 5.0 | 7.0 | 0.00 | 0.00 | 0.00 | 82 | 1013.1 |
| 20260905091004 | 79 | 202 | 5.0 | 6.0 | 0.00 | 0.00 | 0.00 | 81 | 1013.1 |
| 20260905090004 | 79 | 202 | 5.0 | 6.0 | 0.00 | 0.00 | 0.00 | 80 | 1013.1 |
| 20260905081005 | 80 | 225 | 5.0 | 6.0 | 0.00 | 0.00 | 0.00 | 74 | 1012.4 |
| 20260905080005 | 81 | 225 | 4.0 | 5.0 | 0.00 | 0.00 | 0.00 | 73 | 1012.4 |
| 20260905075508 | 81 | 225 | 5.0 | 6.0 | 0.00 | 0.00 | 0.00 | 73 | 1012.4 |
| 20260905074508 | 81 | 225 | 7.0 | 8.0 | 0.00 | 0.00 | 0.00 | 72 | 1012.4 |
| 20260905074005 | 81 | 225 | 6.0 | 7.0 | 0.00 | 0.00 | 0.00 | 71 | 1012.4 |
| 20260905073511 | 81 | 225 | 7.0 | 8.0 | 0.00 | 0.00 | 0.00 | 71 | 1012.4 |
| 20260905071504 | 82 | 180 | 5.0 | 6.0 | 0.00 | 0.00 | 0.00 | 69 | 1012.4 |
| 20260905070504 | 82 | 180 | 5.0 | 6.0 | 0.00 | 0.00 | 0.00 | 67 | 1012.4 |
| 20260905070008 | 83 | 180 | 7.0 | 8.0 | 0.00 | 0.00 | 0.00 | 67 | 1012.4 |
| 20260905065505 | 83 | 180 | 6.0 | 7.0 | 0.00 | 0.00 | 0.00 | 67 | 1012.4 |
| 20260905065008 | 83 | 180 | 7.0 | 9.0 | 0.00 | 0.00 | 0.00 | 66 | 1012.4 |
| 20260905064505 | 83 | 180 | 7.0 | 8.0 | 0.00 | 0.00 | 0.00 | 66 | 1012.4 |
| 20260905063504 | 84 | 180 | 7.0 | 9.0 | 0.00 | 0.00 | 0.00 | 65 | 1012.1 |
| 20260905063007 | 84 | 180 | 8.0 | 10.0 | 0.00 | 0.00 | 0.00 | 65 | 1012.1 |
| 20260905062505 | 84 | 180 | 8.0 | 11.0 | 0.00 | 0.00 | 0.00 | 65 | 1012.1 |
| 20260905061506 | 84 | 180 | 9.0 | 10.0 | 0.00 | 0.00 | 0.00 | 64 | 1012.1 |
| 20260905061004 | 84 | 180 | 10.0 | 12.0 | 0.00 | 0.00 | 0.00 | 63 | 1012.1 |
| 20260905052505 | 85 | 180 | 10.0 | 12.0 | 0.00 | 0.00 | 0.00 | 61 | 1011.7 |
| 20260905052008 | 85 | 180 | 10.0 | 12.0 | 0.00 | 0.00 | 0.00 | 61 | 1011.7 |
| 20260905051009 | 85 | 180 | 9.0 | 10.0 | 0.00 | 0.00 | 0.00 | 60 | 1011.4 |
| 20260905045507 | 86 | 157 | 8.0 | 10.0 | 0.00 | 0.00 | 0.00 | 59 | 1011.0 |
| 20260905042005 | 86 | 135 | 6.0 | 9.0 | 0.00 | 0.00 | 0.00 | 55 | 1011.0 |
| 20260905041005 | 86 | 157 | 6.0 | 10.0 | 0.00 | 0.00 | 0.00 | 54 | 1011.0 |
| 20260905040508 | 86 | 135 | 8.0 | 12.0 | 0.00 | 0.00 | 0.00 | 53 | 1011.0 |
| 20260905034008 | 87 | 112 | 5.0 | 9.0 | 0.00 | 0.00 | 0.00 | 52 | 1011.0 |
| 20260905033003 | 87 | 157 | 6.0 | 9.0 | 0.00 | 0.00 | 0.00 | 52 | 1011.0 |
| 20260905032506 | 87 | 135 | 6.0 | 8.0 | 0.00 | 0.00 | 0.00 | 52 | 1010.7 |
| 20260905032004 | 87 | 135 | 5.0 | 7.0 | 0.00 | 0.00 | 0.00 | 51 | 1010.7 |
| 20260905031507 | 87 | 157 | 6.0 | 10.0 | 0.00 | 0.00 | 0.00 | 51 | 1010.7 |
| 20260905030509 | 88 | 112 | 7.0 | 10.0 | 0.00 | 0.00 | 0.00 | 51 | 1010.7 |
| 20260905030005 | 88 | 135 | 6.0 | 8.0 | 0.00 | 0.00 | 0.00 | 51 | 1010.7 |
| 20260905024504 | 88 | 135 | 6.0 | 9.0 | 0.00 | 0.00 | 0.00 | 50 | 1010.0 |
| 20260905021505 | 89 | 112 | 7.0 | 11.0 | 0.00 | 0.00 | 0.00 | 50 | 1009.7 |
| 20260905020008 | 90 | 157 | 6.0 | 9.0 | 0.00 | 0.00 | 0.00 | 49 | 1009.7 |
| 20260905015008 | 90 | 157 | 8.0 | 12.0 | 0.00 | 0.00 | 0.00 | 49 | 1009.0 |
| 20260905014008 | 90 | 157 | 8.0 | 13.0 | 0.00 | 0.00 | 0.00 | 49 | 1009.0 |
| 20260905011506 | 91 | 135 | 7.0 | 9.0 | 0.00 | 0.00 | 0.00 | 47 | 1008.3 |
| 20260905005506 | 92 | 112 | 6.0 | 10.0 | 0.00 | 0.00 | 0.00 | 45 | 1008.0 |
| 20260905005003 | 92 | 135 | 8.0 | 11.0 | 0.00 | 0.00 | 0.00 | 44 | 1008.0 |
| 20260905004506 | 93 | 112 | 9.0 | 15.0 | 0.00 | 0.00 | 0.00 | 43 | 1007.7 |
| 20260905002506 | 94 | 157 | 9.0 | 12.0 | 0.00 | 0.00 | 0.00 | 40 | 1007.0 |
| 20260905002003 | 95 | 135 | 9.0 | 11.0 | 0.00 | 0.00 | 0.00 | 39 | 1007.0 |
| 20260905001506 | 95 | 157 | 5.0 | 7.0 | 0.00 | 0.00 | 0.00 | 39 | 1007.0 |
| 20260905001008 | 95 | 112 | 8.0 | 12.0 | 0.00 | 0.00 | 0.00 | 38 | 1007.0 |
| 20260905000531 | 95 | 157 | 8.0 | 13.0 | 0.00 | 0.00 | 0.00 | 38 | 1006.6 |
| 20260905000008 | 96 | 112 | 8.0 | 13.0 | 0.00 | 0.00 | 0.00 | 39 | 1006.6 |
| 20260904235506 | 96 | 157 | 9.0 | 13.0 | 0.00 | 0.00 | 0.00 | 39 | 1006.6 |
| 20260904234506 | 96 | 135 | 10.0 | 14.0 | 0.00 | 0.00 | 0.00 | 39 | 1006.6 |
| 20260904232506 | 96 | 157 | 9.0 | 11.0 | 0.00 | 0.00 | 0.00 | 39 | 1006.3 |
| 20260904232004 | 97 | 180 | 13.0 | 15.0 | 0.00 | 0.00 | 0.00 | 38 | 1006.3 |
| 20260904231005 | 97 | 112 | 9.0 | 13.0 | 0.00 | 0.00 | 0.00 | 38 | 1006.3 |
| 20260904230507 | 97 | 157 | 10.0 | 14.0 | 0.00 | 0.00 | 0.00 | 39 | 1006.3 |
| 20260904225004 | 98 | 157 | 11.0 | 13.0 | 0.00 | 0.00 | 0.00 | 37 | 1006.3 |
| 20260904224507 | 97 | 157 | 10.0 | 12.0 | 0.00 | 0.00 | 0.00 | 38 | 1006.0 |
| 20260904222508 | 97 | 135 | 8.0 | 10.0 | 0.00 | 0.00 | 0.00 | 39 | 1006.0 |
| 20260904221006 | 98 | 157 | 6.0 | 8.0 | 0.00 | 0.00 | 0.00 | 38 | 1006.3 |
| 20260904220032 | 97 | 135 | 11.0 | 14.0 | 0.00 | 0.00 | 0.00 | 37 | 1006.6 |
| 20260904215508 | 97 | 157 | 9.0 | 15.0 | 0.00 | 0.00 | 0.00 | 38 | 1006.6 |
| 20260904215005 | 97 | 157 | 9.0 | 12.0 | 0.00 | 0.00 | 0.00 | 38 | 1006.6 |